Location: LDNL
(36.4545°S, 141.6685°E)
Time: 12:24:56
(UTC+10:00)

Tiros 1 despin weight - Pass Details

Date: 11 August 2022
Orbit: 590 x 639 km, 48.2° (Epoch: 23 September)

Event Time Altitude Azimuth Distance (km) Brightness Sun altitude
Rises 07:41:04 0° 239° (WSW) 2,964 ? 2.9°
Reaches altitude 10° 07:43:28 10° 244° (WSW) 2,049 ? 3.4°
Maximum altitude 07:48:03 51° 318° (NW) 811 ? 4.2°
Drops below altitude 10° 07:52:34 10° 34° (NE) 2,016 ? 5.1°
Sets 07:54:54 0° 39° (NE) 2,911 ? 5.5°
